Regional Weather Roundup
Issued by NWS

Home | Current Version | Previous Version | Graphics & Text | Print | Product List | Glossary On
Versions: 1 2 3 4 5 6 7 8 9 10 11 12 13 14 15 16 17 18 19 20 21 22 23 24 25 26 27 28 29 30 31 32 33 34 35 36 37 38 39 40 41 42 43 44 45 46 47 48 49 50
000
ASUS43 KIND 182109
RWRIN

WEATHER ROUNDUP FOR INDIANA
NATIONAL WEATHER SERVICE INDIANAPOLIS IN
500 PM EDT THU SEP 18 2014

NOTE: "FAIR" INDICATES FEW OR NO CLOUDS BELOW 12,000 FEET WITH NO
SIGNIFICANT WEATHER AND/OR OBSTRUCTIONS TO VISIBILITY.

* - STATION DOES NOT REPORT WEATHER SUCH AS PRECIPITATION OR FOG.

+ - STATION NOT QUALITY CONTROLLED BY THE NATIONAL WEATHER SERVICE.
    USE DATA WITH CAUTION...ESPECIALLY DEWPOINT AND RELATIVE
    HUMIDITY OBSERVATIONS.

INZ001>003-010>013-019-020-182200-
NORTHWEST INDIANA

CITY           SKY/WX    TMP DP  RH WIND       PRES   REMARKS
GARY /AIRPORT/ SUNNY     68  54  60 NE14      30.12F
KNOX *+        SUNNY     72  47  41 SE7       30.09F
LA PORTE +     SUNNY     69  54  58 N13       30.11S
MICHIGAN CITY+ SUNNY     64  48  55 N9        30.12S
MONTICELLO +   SUNNY     71  49  46 E5        30.07F
RENSSELAER +   SUNNY     72  48  43 E6        30.09S
VALPARAISO     SUNNY     70  52  52 VRB7      30.10F

$$

LMZ046-743>745-182200-
SOUTHERN LAKE MICHIGAN

STATION/POSITION TIME  TEMP WIND        PRES
                       AIR  DIR/SP/G
                 (UTC) (F)  (DEG/KT/KT) (MB)
MICHIGAN CITY    2100   63  360/ 14/ 16   N/A

$$

INZ004-005-014>016-021>024-182200-
NORTH CENTRAL INDIANA

CITY           SKY/WX    TMP DP  RH WIND       PRES   REMARKS
ELKHART        MOSUNNY   72  48  43 NE7       30.12S
GOSHEN         SUNNY     72  50  45 VRB6      30.10F
LOGANSPORT +   SUNNY     70  45  40 E8        30.10S
PERU/GRISSOM   SUNNY     71  52  50 E9        30.09S
ROCHESTER +    SUNNY     73  46  38 E8        30.10S
SOUTH BEND     SUNNY     72  48  42 NE8       30.11F
WARSAW +       SUNNY     70  50  49 E9        30.10F

$$

INZ006>009-017-018-025>027-182200-
NORTHEAST INDIANA

CITY           SKY/WX    TMP DP  RH WIND       PRES   REMARKS
ANGOLA *+      MOSUNNY   72  48  43 E5        30.11F
AUBURN +       SUNNY     72  45  37 NE5       30.10F
FORT WAYNE     MOSUNNY   71  48  43 NE3       30.11S
HUNTINGTON +   SUNNY     69  50  49 NE5       30.09F

$$

INZ028-029-035-036-043>045-051>053-182200-
WEST CENTRAL INDIANA

CITY           SKY/WX    TMP DP  RH WIND       PRES   REMARKS
GREENCASTLE +  SUNNY     72  50  46 E9        30.06F
LAFAYETTE      SUNNY     71  50  47 NE10      30.07F
TERRE HAUTE    SUNNY     74  50  42 NE9       30.05F

$$

INZ030>032-037>040-046>048-054>057-064-065-182200-
CENTRAL INDIANA

CITY           SKY/WX    TMP DP  RH WIND       PRES   REMARKS
CP ATTERBURY + SUNNY     73  46  38 E12       30.06S
COLUMBUS       SUNNY     72  46  40 E9        30.05F
FRANKFORT +    SUNNY     74  47  39 E9        30.09S
INDIANAPOLIS   MOSUNNY   72  47  40 E10       30.06F
-EAGLE CREEK   SUNNY     72  46  39 E12       30.06F
KOKOMO *+      SUNNY     70  48  46 E7        30.09S
MARION +       SUNNY     71  45  39 E8        30.10S
MT COMFORT *+  SUNNY     72  34  25 E8G16     30.07F
SHELBYVILLE    SUNNY     76  46  34 NE7       30.06F
ZIONSVILLE +   SUNNY     72  47  41 NE8       30.08F

$$

INZ033-034-041-042-049-050-058-059-182200-
EAST CENTRAL INDIANA

CITY           SKY/WX    TMP DP  RH WIND       PRES   REMARKS
MUNCIE         SUNNY     71  40  32 E9        30.09S

$$

INZ060-061-067>069-081>083-085>088-182200-
SOUTHWEST INDIANA

CITY           SKY/WX    TMP DP  RH WIND       PRES   REMARKS
EVANSVILLE     SUNNY     75  51  43 E9        30.02F
WASHINGTON +   SUNNY     74  53  48 E8        30.03F

$$

INZ062-063-066-070>080-084-089>092-182200-
SOUTH CENTRAL AND SOUTHEAST INDIANA

CITY           SKY/WX    TMP DP  RH WIND       PRES   REMARKS
BLOOMINGTON    SUNNY     72  47  40 NE5       30.05F
NORTH VERNON + SUNNY     75  45  33 E9        30.06

$$




USA.gov is the U.S. government's official web portal to all federal, state and local government web resources and services.